User: anonymous   Login
Location: Devils Tower National Monument
(44.5904°N, 104.7201°W)
Time: 04:35:36
(UTC-07:00)
Language:

Envisat - Orbit

View from above orbital plane
View from above orbital plane
View from above satellite
View from above satellite

Ground track
Ground track

The orbit data is extracted from the following two-line orbital elements,

1 27386U 02009A   20054.04759182  .00000007  00000-0  15866-4 0  9991
2 27386  98.1398  67.1464 0001212  95.3260 283.4720 14.37972116942030
Epoch (UTC): 23 February 2020 01:08:31
Eccentricity: 0.0001212
inclination: 98.1398°
perigee height: 764 km
apogee height: 766 km
right ascension of ascending node: 67.1464°
argument of perigee: 95.3260°
revolutions per day: 14.37972116
mean anomaly at epoch: 283.4720°
orbit number at epoch: 94203

The dashed part of the orbit path shows where the satellite is in the earth's shadow,  

DLR